This is the latest recevied weather packets stored in our database for station/object DL9GJ-6. If no packets are shown the sender has not sent any weather packets the latest 10 day(s).
| Time | Temp. | Humidity | Pressure | Rain* | Wind** | Luminosity | Snow |
|---|---|---|---|---|---|---|---|
| 1777825943 | 23.89° C | 29% | 1010.9 hPa | 0 mm | - | 91 W/m² | - |
| 1777825931 | 23.89° C | 29% | 1010.9 hPa | 0 mm | - | 91 W/m² | - |
| 1777825583 | 24.44° C | 32% | 1010.9 hPa | 0 mm | - | 103 W/m² | - |
| 1777825224 | 24.44° C | 31% | 1010.8 hPa | 0 mm | - | 125 W/m² | - |
| 1777824864 | 24.44° C | 31% | 1010.8 hPa | 0 mm | - | 154 W/m² | - |
| 1777824503 | 24.44° C | 32% | 1010.8 hPa | 0 mm | - | 154 W/m² | - |
| 1777824144 | 24.44° C | 31% | 1010.6 hPa | 0 mm | - | 137 W/m² | - |
| 1777824133 | 24.44° C | 31% | 1010.6 hPa | 0 mm | - | 137 W/m² | - |
| 1777823783 | 24.44° C | 31% | 1010.6 hPa | 0 mm | - | 123 W/m² | - |
| 1777823424 | 24.44° C | 33% | 1010.7 hPa | 0 mm | - | 115 W/m² | - |
| 1777823064 | 24.44° C | 33% | 1010.7 hPa | 0 mm | - | 118 W/m² | - |
| 1777823054 | 24.44° C | 33% | 1010.7 hPa | 0 mm | - | 118 W/m² | - |
| 1777822705 | 24.44° C | 32% | 1010.8 hPa | 0 mm | - | 108 W/m² | - |
| 1777822345 | 24.44° C | 33% | 1010.8 hPa | 0 mm | - | 117 W/m² | - |
| 1777821986 | 24.44° C | 37% | 1010.8 hPa | 0 mm | - | 130 W/m² | - |
| 1777821970 | 24.44° C | 37% | 1010.8 hPa | 0 mm | - | 130 W/m² | - |
| 1777821625 | 24.44° C | 35% | 1010.9 hPa | 0 mm | - | 163 W/m² | - |
| 1777821611 | 24.44° C | 35% | 1010.9 hPa | 0 mm | - | 163 W/m² | - |
| 1777821264 | 24.44° C | 36% | 1010.9 hPa | 0 mm | - | 88 W/m² | - |
| 1777820904 | 24.44° C | 37% | 1011 hPa | 0 mm | - | 106 W/m² | - |
| 1777820543 | 24.44° C | 36% | 1011.1 hPa | 0 mm | - | 118 W/m² | - |
| 1777820184 | 24.44° C | 36% | 1011.1 hPa | 0 mm | - | 172 W/m² | - |
| 1777819823 | 24.44° C | 37% | 1011.2 hPa | 0 mm | - | 175 W/m² | - |
| 1777819463 | 24.44° C | 39% | 1011.3 hPa | 0 mm | - | 217 W/m² | - |
| 1777819103 | 24.44° C | 37% | 1011.3 hPa | 0 mm | - | 201 W/m² | - |
* Rain latest hour (hover to see other rain measurements)
** Current wind speed in m/s (hover to see current wind gust speed)